Location: Asheville, NC
(35.6000°N, 82.5500°W)
Time: 01:26:07
(UTC-05:00)

Vanguard 2 - Pass Details

Date: 13 February 2018
Orbit: 553 x 2939 km, 32.9° (Epoch: 23 February)

Event Time Altitude Azimuth Distance (km) Brightness Sun altitude
Rises 02:12:52 0° 264° (W) 2,733 - -60.1°
Reaches altitude 10° 02:15:39 10° 241° (WSW) 1,930 - -59.7°
Maximum altitude 02:18:20 16° 202° (SSW) 1,709 - -59.3°
Drops below altitude 10° 02:21:30 10° 164° (SSE) 2,328 - -58.8°
Sets 02:25:24 0° 144° (SE) 3,640 - -58.2°
